DW3765 Weather Reports


Display with metric or nautical units.
time (UTC)temp
F
wind
direction
speed
MPH
gust
MPH
rain 1hr
in
rain 24hr
in
rain mn
in
humidity
%
barometer
mb
20260505001140 79 155 5.0 15.0 0.00 0.00 0.00 65 1009.5
20260505000710 79 141 6.0 18.0 0.00 0.00 0.00 65 1009.5
20260505000158 79 163 9.0 18.0 0.00 0.00 0.00 64 1009.6
20260504235640 79 182 8.0 21.0 0.00 0.00 0.00 63 1009.8
20260504235129 79 186 9.0 16.0 0.00 0.00 0.00 63 1009.9
20260504234632 80 169 10.0 19.0 0.00 0.00 0.00 62 1009.8
20260504234141 80 159 12.0 19.0 0.00 0.00 0.00 62 1009.9
20260504233652 80 162 11.0 19.0 0.00 0.00 0.00 63 1010.0
20260504233133 80 168 9.0 14.0 0.00 0.00 0.00 63 1010.2
20260504232644 80 156 8.0 19.0 0.00 0.00 0.00 62 1010.3
20260504232155 80 169 9.0 19.0 0.00 0.00 0.00 62 1010.2
20260504231638 80 200 8.0 21.0 0.00 0.00 0.00 63 1010.2
20260504231147 80 200 9.0 21.0 0.00 0.00 0.00 62 1010.3
20260504230647 79 183 7.0 20.0 0.00 0.00 0.00 63 1010.4
20260504230137 79 173 10.0 20.0 0.00 0.00 0.00 63 1010.4
20260504225649 79 207 7.0 16.0 0.00 0.00 0.00 63 1010.4
20260504225148 79 148 9.0 16.0 0.00 0.00 0.00 63 1010.5
20260504224658 79 205 9.0 18.0 0.00 0.00 0.00 63 1010.8
20260504224208 79 219 11.0 18.0 0.00 0.00 0.00 62 1010.8
20260504223649 79 169 7.0 20.0 0.00 0.00 0.00 63 1010.7
20260504223137 79 182 7.0 20.0 0.00 0.00 0.00 63 1010.8
20260504222648 79 193 6.0 14.0 0.00 0.00 0.00 63 1010.9
20260504222148 79 180 8.0 16.0 0.00 0.00 0.00 63 1011.0
20260504221639 79 214 7.0 16.0 0.00 0.00 0.00 63 1010.8
20260504221142 79 192 6.0 18.0 0.00 0.00 0.00 63 1010.9
20260504220635 79 223 8.0 18.0 0.00 0.00 0.00 63 1010.9
20260504220143 79 184 7.0 23.0 0.00 0.00 0.00 64 1010.9
20260504215641 79 215 14.0 23.0 0.00 0.00 0.00 63 1010.8
20260504215153 79 229 9.0 20.0 0.00 0.00 0.00 63 1010.8
20260504214642 79 183 10.0 20.0 0.00 0.00 0.00 64 1010.9
20260504214154 78 193 8.0 19.0 0.00 0.00 0.00 64 1010.9
20260504213638 79 169 10.0 19.0 0.00 0.00 0.00 63 1010.9
20260504213149 79 184 10.0 19.0 0.00 0.00 0.00 63 1010.9
20260504212631 79 211 7.0 16.0 0.00 0.00 0.00 64 1011.1
20260504212141 79 203 11.0 19.0 0.00 0.00 0.00 63 1011.2
20260504211712 79 195 8.0 19.0 0.00 0.00 0.00 64 1011.3
20260504211132 79 219 8.0 15.0 0.00 0.00 0.00 65 1011.2
20260504210643 78 175 9.0 15.0 0.00 0.00 0.00 64 1011.5
20260504210145 79 199 8.0 19.0 0.00 0.00 0.00 64 1011.6
20260504205656 79 219 8.0 16.0 0.00 0.00 0.00 64 1011.8
20260504205203 79 211 8.0 16.0 0.00 0.00 0.00 64 1011.9
20260504204653 78 213 9.0 16.0 0.00 0.00 0.00 64 1011.8
20260504204141 79 150 10.0 16.0 0.00 0.00 0.00 64 1011.8
20260504203652 79 214 9.0 16.0 0.00 0.00 0.00 63 1011.9
20260504203152 79 149 6.0 20.0 0.00 0.00 0.00 64 1012.2
20260504202658 78 225 10.0 20.0 0.00 0.00 0.00 64 1012.3
20260504202139 78 167 6.0 18.0 0.00 0.00 0.00 64 1012.4
20260504201654 78 158 7.0 18.0 0.00 0.00 0.00 64 1012.5
20260504201205 78 189 9.0 16.0 0.00 0.00 0.00 63 1012.4
20260504200647 78 198 9.0 16.0 0.00 0.00 0.00 65 1012.5
20260504200154 79 163 7.0 18.0 0.00 0.00 0.00 64 1012.6
20260504195645 78 217 10.0 20.0 0.00 0.00 0.00 63 1012.6
20260504195150 78 196 9.0 16.0 0.00 0.00 0.00 64 1012.8
20260504194630 78 202 9.0 18.0 0.00 0.00 0.00 64 1012.7
20260504194142 78 188 10.0 20.0 0.00 0.00 0.00 63 1012.7
20260504193636 79 154 12.0 20.0 0.00 0.00 0.00 62 1012.7
20260504193137 79 190 10.0 20.0 0.00 0.00 0.00 62 1012.8
20260504192647 79 204 10.0 20.0 0.00 0.00 0.00 61 1012.8
20260504192156 79 225 11.0 20.0 0.00 0.00 0.00 61 1013.0
20260504191638 79 136 7.0 15.0 0.00 0.00 0.00 63 1013.1
20260504191148 79 273 7.0 15.0 0.00 0.00 0.00 62 1013.1
20260504190633 79 209 7.0 20.0 0.00 0.00 0.00 62 1013.2
20260504190200 78 182 10.0 20.0 0.00 0.00 0.00 64 1013.3
20260504185639 78 145 8.0 16.0 0.00 0.00 0.00 64 1013.2
20260504185151 78 156 10.0 20.0 0.00 0.00 0.00 63 1013.3
20260504184633 79 146 10.0 20.0 0.00 0.00 0.00 62 1013.4
20260504184143 79 107 5.0 18.0 0.00 0.00 0.00 64 1013.5
20260504183654 78 177 10.0 20.0 0.00 0.00 0.00 63 1013.6
20260504183133 78 139 13.0 20.0 0.00 0.00 0.00 63 1013.8
20260504182648 78 215 9.0 19.0 0.00 0.00 0.00 62 1013.9
20260504182212 78 213 9.0 20.0 0.00 0.00 0.00 63 1013.8
20260504181634 78 188 10.0 20.0 0.00 0.00 0.00 62 1014.0
20260504181144 78 171 8.0 16.0 0.00 0.00 0.00 64 1014.0
20260504180627 77 215 8.0 15.0 0.00 0.00 0.00 64 1014.1
20260504180135 77 199 6.0 15.0 0.00 0.00 0.00 66 1014.0
20260504175647 77 219 10.0 18.0 0.00 0.00 0.00 63 1014.1
20260504175149 76 233 10.0 18.0 0.00 0.00 0.00 67 1014.1
20260504174659 76 184 8.0 20.0 0.00 0.00 0.00 66 1014.1
20260504174149 76 189 9.0 19.0 0.00 0.00 0.00 64 1014.2
20260504173632 76 163 7.0 19.0 0.00 0.00 0.00 67 1014.2
20260504173142 76 219 10.0 19.0 0.00 0.00 0.00 65 1014.4
20260504172651 76 149 6.0 24.0 0.00 0.00 0.00 67 1014.2
20260504172135 76 247 8.0 21.0 0.00 0.00 0.00 65 1014.5
20260504171644 76 153 10.0 19.0 0.00 0.00 0.00 65 1014.6
20260504171151 75 165 11.0 19.0 0.00 0.00 0.00 67 1014.6
20260504170633 75 225 8.0 20.0 0.00 0.00 0.00 68 1014.7
20260504170203 75 195 8.0 18.0 0.00 0.00 0.00 70 1014.7
20260504160142 73 180 7.0 16.0 0.00 0.00 0.00 74 1015.2
20260504151142 68 208 10.0 13.0 0.00 0.00 0.00 81 1015.9
20260504150714 68 187 6.0 12.0 0.00 0.00 0.00 81 1015.8
20260504150153 68 217 5.0 13.0 0.00 0.00 0.00 82 1015.9
20260504141141 66 192 8.0 15.0 0.00 0.00 0.00 82 1015.7
20260504140653 66 205 11.0 15.0 0.00 0.00 0.00 82 1015.7
20260504140133 65 207 3.0 13.0 0.00 0.00 0.00 84 1015.8
20260504130629 62 183 2.0 6.0 0.00 0.00 0.00 86 1016.0
20260504130139 62 185 3.0 6.0 0.00 0.00 0.00 86 1015.8
20260504120156 61 188 2.0 5.0 0.00 0.00 0.00 85 1015.4
20260504110702 61 186 1.0 5.0 0.00 0.00 0.00 84 1015.1
20260504110149 61 170 2.0 5.0 0.00 0.00 0.00 84 1015.3
20260504100131 61 183 4.0 8.0 0.00 0.00 0.00 83 1015.1
20260504081650 63 142 5.0 7.0 0.00 0.00 0.00 79 1016.1
20260504081139 63 161 5.0 7.0 0.00 0.00 0.00 79 1016.2
20260504080649 63 169 4.0 9.0 0.00 0.00 0.00 78 1016.2
20260504080131 63 175 5.0 9.0 0.00 0.00 0.00 78 1016.2
20260504070134 65 159 6.0 13.0 0.00 0.00 0.00 75 1017.0
20260504060148 65 150 6.0 12.0 0.00 0.00 0.00 72 1017.9
20260504050637 66 115 5.0 15.0 0.00 0.00 0.00 69 1018.1
20260504050205 66 148 7.0 15.0 0.00 0.00 0.00 69 1018.1
20260504045636 66 173 6.0 12.0 0.00 0.00 0.00 68 1018.0
20260504045206 66 157 6.0 14.0 0.00 0.00 0.00 68 1018.1
20260504044657 66 173 7.0 14.0 0.00 0.00 0.00 67 1018.1
20260504044137 66 174 8.0 13.0 0.00 0.00 0.00 67 1018.2
20260504043628 66 159 8.0 14.0 0.00 0.00 0.00 66 1018.2
20260504043158 67 159 5.0 14.0 0.00 0.00 0.00 66 1018.2
20260504042659 67 140 7.0 12.0 0.00 0.00 0.00 66 1018.2
20260504042152 67 130 7.0 12.0 0.00 0.00 0.00 65 1018.1
20260504041643 67 169 5.0 12.0 0.00 0.00 0.00 65 1018.2
20260504041131 67 144 5.0 12.0 0.00 0.00 0.00 64 1018.3
20260504040641 67 126 6.0 12.0 0.00 0.00 0.00 64 1018.3
20260504040153 67 149 7.0 12.0 0.00 0.00 0.00 63 1018.4
20260504035634 67 148 7.0 12.0 0.00 0.00 0.00 63 1018.3
20260504035140 67 164 7.0 13.0 0.00 0.00 0.00 63 1018.3
20260504034651 67 147 8.0 13.0 0.00 0.00 0.00 62 1018.3
20260504034159 68 138 6.0 13.0 0.00 0.00 0.00 62 1018.2
20260504033640 68 122 8.0 11.0 0.00 0.00 0.00 61 1018.2
20260504033152 68 167 7.0 11.0 0.00 0.00 0.00 61 1018.2
20260504032637 68 135 6.0 11.0 0.00 0.00 0.00 60 1018.3
20260504032148 68 138 5.0 9.0 0.00 0.00 0.00 59 1018.3
20260504031634 68 150 4.0 11.0 0.00 0.00 0.00 58 1018.1
20260504031204 68 126 6.0 12.0 0.00 0.00 0.00 57 1018.1
20260504030654 69 145 8.0 14.0 0.00 0.00 0.00 57 1018.0
20260504030136 69 135 8.0 14.0 0.00 0.00 0.00 56 1018.1
20260504025647 68 114 7.0 14.0 0.00 0.00 0.00 56 1018.0
20260504025129 68 138 8.0 12.0 0.00 0.00 0.00 55 1018.0
20260504024659 68 137 5.0 7.0 0.00 0.00 0.00 55 1018.1
20260504024150 68 130 3.0 5.0 0.00 0.00 0.00 54 1018.1
20260504023632 68 133 2.0 5.0 0.00 0.00 0.00 54 1018.0
20260504023142 68 133 3.0 5.0 0.00 0.00 0.00 53 1018.0
20260504022654 68 134 2.0 6.0 0.00 0.00 0.00 53 1017.9
20260504022157 68 135 3.0 5.0 0.00 0.00 0.00 53 1017.9
20260504021648 68 134 4.0 5.0 0.00 0.00 0.00 53 1018.0
20260504021132 69 132 3.0 5.0 0.00 0.00 0.00 52 1018.0
20260504020642 69 132 2.0 4.0 0.00 0.00 0.00 52 1018.1
20260504020146 69 132 1.0 3.0 0.00 0.00 0.00 52 1017.9
20260504015637 69 132 2.0 5.0 0.00 0.00 0.00 51 1018.0
20260504015144 70 132 2.0 5.0 0.00 0.00 0.00 50 1017.9
20260504014644 70 130 3.0 5.0 0.00 0.00 0.00 50 1017.7
20260504014151 70 126 3.0 5.0 0.00 0.00 0.00 49 1017.7
20260504013641 71 117 3.0 5.0 0.00 0.00 0.00 49 1017.7
20260504013141 71 142 2.0 6.0 0.00 0.00 0.00 48 1017.6
20260504012653 71 141 3.0 7.0 0.00 0.00 0.00 48 1017.7
20260504012133 71 138 3.0 7.0 0.00 0.00 0.00 47 1017.7
20260504011645 71 137 4.0 8.0 0.00 0.00 0.00 47 1017.5
20260504011153 72 130 5.0 8.0 0.00 0.00 0.00 46 1017.5
20260504010637 72 111 5.0 7.0 0.00 0.00 0.00 45 1017.3
20260504010148 72 156 3.0 6.0 0.00 0.00 0.00 45 1017.4
20260504005659 73 160 4.0 6.0 0.00 0.00 0.00 44 1017.4
20260504005139 73 127 3.0 7.0 0.00 0.00 0.00 43 1017.3
20260504004651 73 150 4.0 9.0 0.00 0.00 0.00 42 1017.3
20260504004130 74 153 5.0 9.0 0.00 0.00 0.00 41 1017.5
20260504003643 74 145 5.0 8.0 0.00 0.00 0.00 41 1017.4
20260504003154 74 148 4.0 12.0 0.00 0.00 0.00 41 1017.6
20260504002630 75 134 7.0 12.0 0.00 0.00 0.00 40 1017.5
20260504002141 75 159 8.0 14.0 0.00 0.00 0.00 39 1017.6
20260504001634 75 171 8.0 14.0 0.00 0.00 0.00 39 1017.7